[Date Prev][Date Next][Thread Prev][Thread Next] - [Date Index][Thread Index][Author Index]
2 Line ISS Keps 5-7
- Subject: [sarex] 2 Line ISS Keps 5-7
- From: "Dave Larsen PhD" <doc@xxxxxxxxxxx>
- Date: Wed, 7 May 2003 02:13:40 -0700
ISS
1 25544U 98067A 03127.15256720 .00016399 00000-0 21218-3 0 9817
2 25544 51.6316 226.4278 0006555 89.9635 345.7337 15.59044296254600
----
Via the sarex mailing list at AMSAT.ORG courtesy of AMSAT-NA.
To unsubscribe, send "unsubscribe sarex" to Majordomo@amsat.org
AMSAT Home